CW8399 Weather Reports


Display with metric or nautical units.
time (UTC)temp
F
wind
direction
speed
MPH
gust
MPH
rain 1hr
in
rain 24hr
in
rain mn
in
humidity
%
barometer
mb
20260506201011 85 0 1.0 7.0 0.00 0.00 0.00
20260506200016 85 356 4.0 8.0 0.00 0.00 0.00
20260506195459 85 353 3.0 8.0 0.00 0.00 0.00
20260506195023 85 346 5.0 8.0 0.00 0.00 0.00
20260506194515 84 359 3.0 8.0 0.00 0.00 0.00
20260506193503 84 355 0.0 7.0 0.00 0.00 0.00
20260506193007 83 325 2.0 8.0 0.00 0.00 0.00
20260506192505 83 357 5.0 8.0 0.00 0.00 0.00
20260506191520 83 347 2.0 10.0 0.00 0.00 0.00
20260506191003 83 357 5.0 9.0 0.00 0.00 0.00
20260506190005 82 0 1.0 8.0 0.00 0.00 0.00
20260506185506 82 359 1.0 9.0 0.00 0.00 0.00
20260506185025 82 0 4.0 9.0 0.00 0.00 0.00
20260506184515 81 321 2.0 7.0 0.00 0.00 0.00
20260506184015 81 0 2.0 7.0 0.00 0.00 0.00
20260506182959 80 0 4.0 9.0 0.00 0.00 0.00
20260506182501 80 0 4.0 9.0 0.00 0.00 0.00
20260506182023 80 358 5.0 8.0 0.00 0.00 0.00
20260506181514 80 0 1.0 7.0 0.00 0.00 0.00
20260506181013 79 35 3.0 7.0 0.00 0.00 0.00
20260506180516 79 339 3.0 7.0 0.00 0.00 0.00
20260506180016 79 0 2.0 6.0 0.00 0.00 0.00
20260506175500 78 359 0.0 8.0 0.00 0.00 0.00
20260506175020 78 350 4.0 9.0 0.00 0.00 0.00
20260506174512 78 356 6.0 9.0 0.00 0.00 0.00
20260506174012 77 337 5.0 9.0 0.00 0.00 0.00
20260506173515 77 334 1.0 8.0 0.00 0.00 0.00
20260506173015 77 0 4.0 8.0 0.00 0.00 0.00
20260506172515 76 0 2.0 8.0 0.00 0.00 0.00
20260506170515 75 355 6.0 9.0 0.00 0.00 0.00
20260506170017 75 359 6.0 8.0 0.00 0.00 0.00
20260506165518 74 344 3.0 7.0 0.00 0.00 0.00
20260506164514 73 0 1.0 8.0 0.00 0.00 0.00
20260506163515 73 336 3.0 11.0 0.00 0.00 0.00
20260506163016 72 0 4.0 11.0 0.00 0.00 0.00
20260506162502 72 357 3.0 8.0 0.00 0.00 0.00
20260506162025 71 18 3.0 7.0 0.00 0.00 0.00
20260506161517 71 335 3.0 7.0 0.00 0.00 0.00
20260506160521 70 357 2.0 7.0 0.00 0.00 0.00
20260506160019 70 347 1.0 7.0 0.00 0.00 0.00
20260506154500 69 347 4.0 8.0 0.00 0.00 0.00
20260506153959 69 349 5.0 7.0 0.00 0.00 0.00
20260506153501 68 228 1.0 6.0 0.00 0.00 0.00
20260506153003 68 350 2.0 6.0 0.00 0.00 0.00
20260506152504 68 0 3.0 6.0 0.00 0.00 0.00
20260506152004 67 357 2.0 4.0 0.00 0.00 0.00
20260506151525 67 0 1.0 4.0 0.00 0.00 0.00
20260506151014 66 317 0.0 3.0 0.00 0.00 0.00
20260506145505 65 252 0.0 3.0 0.00 0.00 0.00
20260506145004 65 354 0.0 4.0 0.00 0.00 0.00
20260506144527 65 304 1.0 4.0 0.00 0.00 0.00
20260506144018 64 0 0.0 4.0 0.00 0.00 0.00
20260506143500 64 359 1.0 4.0 0.00 0.00 0.00
20260506143020 64 0 2.0 5.0 0.00 0.00 0.00
20260506142521 63 359 2.0 5.0 0.00 0.00 0.00
20260506142002 63 278 2.0 4.0 0.00 0.00 0.00
20260506141524 62 31 0.0 4.0 0.00 0.00 0.00
20260506141014 62 345 2.0 4.0 0.00 0.00 0.00
20260506140518 62 0 0.0 2.0 0.00 0.00 0.00
20260506140000 61 0 0.0 1.0 0.00 0.00 0.00
20260506135026 61 0 0.0 1.0 0.00 0.00 0.00
20260506134002 60 0 0.0 1.0 0.00 0.00 0.00
20260506133007 60 0 0.0 1.0 0.00 0.00 0.00
20260506132509 60 0 0.0 1.0 0.00 0.00 0.00
20260506132009 59 0 0.0 0.0 0.00 0.00 0.00
20260506131503 59 0 0.0 0.0 0.00 0.00 0.00
20260506131004 59 0 0.0 1.0 0.00 0.00 0.00
20260506130504 59 0 0.0 1.0 0.00 0.00 0.00
20260506130004 59 0 0.0 1.0 0.00 0.00 0.00
20260506125505 59 0 0.0 2.0 0.00 0.00 0.00
20260506124521 59 0 0.0 2.0 0.00 0.00 0.00
20260506124018 59 0 0.0 1.0 0.00 0.00 0.00
20260506123517 59 0 0.0 1.0 0.00 0.00 0.00
20260506123020 59 0 0.0 0.0 0.00 0.00 0.00
20260506122504 59 0 0.0 0.0 0.00 0.00 0.00
20260506122005 59 0 0.0 0.0 0.00 0.00 0.00
20260506120003 60 0 0.0 0.0 0.00 0.00 0.00
20260506115505 60 0 0.0 1.0 0.00 0.00 0.00
20260506115006 60 0 0.0 1.0 0.00 0.00 0.00
20260506114528 60 0 0.0 1.0 0.00 0.00 0.00
20260506114000 60 0 0.0 0.0 0.00 0.00 0.00
20260506113004 60 0 0.0 0.0 0.00 0.00 0.00
20260506112505 60 0 0.0 0.0 0.00 0.00 0.00
20260506112024 60 0 0.0 0.0 0.00 0.00 0.00
20260506111515 60 0 0.0 1.0 0.00 0.00 0.00
20260506111016 60 0 0.0 1.0 0.00 0.00 0.00
20260506110509 60 0 0.0 1.0 0.00 0.00 0.00
20260506110010 61 0 0.0 0.0 0.00 0.00 0.00
20260506105514 61 0 0.0 1.0 0.00 0.00 0.00
20260506105014 61 0 0.0 1.0 0.00 0.00 0.00
20260506104505 61 0 0.0 1.0 0.00 0.00 0.00
20260506104007 61 0 0.0 1.0 0.00 0.00 0.00
20260506103011 61 0 0.0 1.0 0.00 0.00 0.00
20260506102513 61 0 0.0 1.0 0.00 0.00 0.00
20260506102018 61 0 0.0 1.0 0.00 0.00 0.00
20260506100500 62 0 0.0 0.0 0.00 0.00 0.00
20260506100002 62 0 0.0 1.0 0.00 0.00 0.00
20260506095505 62 0 0.0 1.0 0.00 0.00 0.00
20260506094501 62 0 0.0 1.0 0.00 0.00 0.00
20260506094001 63 0 0.0 1.0 0.00 0.00 0.00
20260506093506 63 0 0.0 1.0 0.00 0.00 0.00
20260506092510 63 0 0.0 1.0 0.00 0.00 0.00
20260506092012 63 0 0.0 1.0 0.00 0.00 0.00
20260506090014 63 0 0.0 1.0 0.00 0.00 0.00
20260506085513 63 0 0.0 0.0 0.00 0.00 0.00
20260506084508 64 0 0.0 1.0 0.00 0.00 0.00
20260506083512 64 0 0.0 1.0 0.00 0.00 0.00
20260506083011 64 0 0.0 1.0 0.00 0.00 0.00
20260506082514 64 0 0.0 1.0 0.00 0.00 0.00
20260506082013 64 0 0.0 0.0 0.00 0.00 0.00
20260506081506 64 0 0.0 0.0 0.00 0.00 0.00
20260506080508 65 0 0.0 0.0 0.00 0.00 0.00
20260506073016 66 0 0.0 3.0 0.00 0.00 0.00
20260506072516 66 0 0.0 2.0 0.00 0.00 0.00
20260506071513 67 0 0.0 2.0 0.00 0.00 0.00
20260506071012 67 0 0.0 2.0 0.00 0.00 0.00
20260506062023 68 345 0.0 3.0 0.00 0.00 0.00
20260506061516 68 0 0.0 4.0 0.00 0.00 0.00
20260506061014 68 0 0.0 2.0 0.00 0.00 0.00
20260506060516 68 0 0.0 1.0 0.00 0.00 0.00
20260506051016 71 0 0.0 3.0 0.00 0.00 0.00
20260506050516 72 0 0.0 3.0 0.00 0.00 0.00
20260506045021 72 0 1.0 5.0 0.00 0.00 0.00
20260506044511 72 0 0.0 2.0 0.00 0.00 0.00
20260506043517 73 0 0.0 1.0 0.00 0.00 0.00
20260506043017 73 0 0.0 2.0 0.00 0.00 0.00
20260506042519 73 359 0.0 6.0 0.00 0.00 0.00
20260506042021 73 325 0.0 6.0 0.00 0.00 0.00
20260506041513 73 349 3.0 6.0 0.00 0.00 0.00
20260506041014 73 0 0.0 6.0 0.00 0.00 0.00
20260506040515 74 0 2.0 6.0 0.00 0.00 0.00
20260506040016 74 0 1.0 4.0 0.00 0.00 0.00
20260506035500 74 0 1.0 7.0 0.00 0.00 0.00
20260506035022 74 0 0.0 7.0 0.00 0.00 0.00
20260506034516 74 0 1.0 7.0 0.00 0.00 0.00
20260506034016 74 359 1.0 7.0 0.00 0.00 0.00
20260506033459 74 0 3.0 6.0 0.00 0.00 0.00
20260506033000 74 0 3.0 8.0 0.00 0.00 0.00
20260506032501 74 0 2.0 8.0 0.00 0.00 0.00
20260506032021 74 0 4.0 8.0 0.00 0.00 0.00
20260506031516 75 0 4.0 7.0 0.00 0.00 0.00
20260506031016 75 354 2.0 8.0 0.00 0.00 0.00
20260506030519 75 0 1.0 10.0 0.00 0.00 0.00
20260506030020 75 333 5.0 12.0 0.00 0.00 0.00
20260506025522 75 0 3.0 12.0 0.00 0.00 0.00
20260506025000 75 356 4.0 8.0 0.00 0.00 0.00
20260506024003 76 355 3.0 10.0 0.00 0.00 0.00
20260506023504 76 0 3.0 10.0 0.00 0.00 0.00
20260506023005 76 0 2.0 10.0 0.00 0.00 0.00
20260506022505 76 359 2.0 10.0 0.00 0.00 0.00
20260506022027 76 279 4.0 10.0 0.00 0.00 0.00
20260506021459 77 357 4.0 9.0 0.00 0.00 0.00
20260506021000 77 0 5.0 8.0 0.00 0.00 0.00
20260506020503 77 0 3.0 7.0 0.00 0.00 0.00
20260506020003 77 0 1.0 6.0 0.00 0.00 0.00
20260506015506 77 337 1.0 7.0 0.00 0.00 0.00
20260506015028 78 357 4.0 8.0 0.00 0.00 0.00
20260506014518 78 315 4.0 8.0 0.00 0.00 0.00
20260506014019 78 353 3.0 6.0 0.00 0.00 0.00
20260506013000 79 0 2.0 9.0 0.00 0.00 0.00
20260506012503 79 356 6.0 9.0 0.00 0.00 0.00
20260506012005 79 334 1.0 7.0 0.00 0.00 0.00
20260506011528 79 194 2.0 5.0 0.00 0.00 0.00
20260506011017 79 311 0.0 6.0 0.00 0.00 0.00
20260506010518 79 212 0.0 7.0 0.00 0.00 0.00
20260506010018 80 0 4.0 7.0 0.00 0.00 0.00
20260506005517 79 353 0.0 5.0 0.00 0.00 0.00
20260506005018 79 180 0.0 3.0 0.00 0.00 0.00
20260506004510 79 183 0.0 3.0 0.00 0.00 0.00
20260506004010 79 240 0.0 5.0 0.00 0.00 0.00
20260506003511 79 357 3.0 8.0 0.00 0.00 0.00
20260506003016 80 0 3.0 9.0 0.00 0.00 0.00
20260506002020 79 355 2.0 8.0 0.00 0.00 0.00
20260506001512 79 106 0.0 6.0 0.00 0.00 0.00
20260506000515 79 0 1.0 8.0 0.00 0.00 0.00
20260506000015 80 0 3.0 7.0 0.00 0.00 0.00
20260505235020 80 349 1.0 8.0 0.00 0.00 0.00
20260505234015 80 138 3.0 7.0 0.00 0.00 0.00
20260505233519 79 0 2.0 6.0 0.00 0.00 0.00
20260505233022 79 0 0.0 4.0 0.00 0.00 0.00
20260505232513 79 242 1.0 5.0 0.00 0.00 0.00
20260505232017 79 359 2.0 5.0 0.00 0.00 0.00
20260505231519 80 353 0.0 4.0 0.00 0.00 0.00
20260505231002 79 0 2.0 7.0 0.00 0.00 0.00
20260505225508 80 309 4.0 8.0 0.00 0.00 0.00
20260505225010 80 348 2.0 8.0 0.00 0.00 0.00
20260505223504 80 358 3.0 11.0 0.00 0.00 0.00
20260505223006 79 352 1.0 11.0 0.00 0.00 0.00
20260505222505 79 346 4.0 11.0 0.00 0.00 0.00
20260505222026 79 0 5.0 9.0 0.00 0.00 0.00
20260505221521 79 358 2.0 9.0 0.00 0.00 0.00
20260505221001 79 0 4.0 8.0 0.00 0.00 0.00
20260505214504 79 358 8.0 12.0 0.00 0.00 0.00
20260505214006 79 359 4.0 9.0 0.00 0.00 0.00
20260505213506 78 353 2.0 9.0 0.00 0.00 0.00
20260505212012 79 202 0.0 10.0 0.00 0.00 0.00
20260505211509 79 353 5.0 10.0 0.00 0.00 0.00
20260505211010 79 359 3.0 13.0 0.00 0.00 0.00
20260505210013 79 357 2.0 17.0 0.00 0.00 0.00
20260505205514 79 325 5.0 22.0 0.00 0.00 0.00
20260505205014 79 1 8.0 22.0 0.00 0.00 0.00
20260505204506 78 357 3.0 13.0 0.00 0.00 0.00
20260505204006 79 0 1.0 13.0 0.00 0.00 0.00
20260505203508 78 350 0.0 12.0 0.00 0.00 0.00
20260505203008 78 0 3.0 12.0 0.00 0.00 0.00
20260505202505 78 358 6.0 11.0 0.00 0.00 0.00
20260505202026 78 347 5.0 10.0 0.00 0.00 0.00
20260505201517 78 358 1.0 9.0 0.00 0.00 0.00